Retour au catalogue

NORSAT 2

ActifScienceSSO
NORAD 42828·PAYLOAD·🇳🇴 Norway

Lancé Jul 14, 2017 depuis Baikonur Cosmodrome

Loading…

Prochains Passages (prochaines 24 heures)

TLE

FraisSource: Space-Track

Époque: Sep 14, 2026, 11:10 UTC

1 42828U 17042D   26257.46532758  .00007816  00000-0  33025-3 0  9998
2 42828  97.4105  69.6328 0010525  96.9280 263.3155 15.23465714501327

Suivez NORSAT 2 en temps réel avec AllMySat

Download on the App Store